Time,TemperatureF,DewpointF,PressureIn,WindDirection,WindDirectionDegrees,WindSpeedMPH,WindSpeedGustMPH,Humidity,HourlyPrecipIn,Conditions,Clouds,dailyrainin,SoftwareType,DateUTC
2013-01-21 01:00:00,28.0,-99.9,-100.00,North,-999,-999.0,-999.0,-999,-99.99,,,0.00,,2013-01-21 09:00:00,
2013-01-21 01:53:00,28.0,-99.9,-100.00,North,-999,-999.0,-999.0,-999,-99.99,,,0.00,,2013-01-21 09:53:00,
2013-01-21 02:00:00,28.0,-99.9,-100.00,NNE,31,2.0,6.0,-999,-99.99,,,0.00,,2013-01-21 10:00:00,
2013-01-21 02:53:00,28.0,-99.9,-100.00,NNE,31,2.0,6.0,-999,-99.99,,,0.00,,2013-01-21 10:53:00,
2013-01-21 03:00:00,28.0,-99.9,-100.00,ENE,58,2.0,6.0,-999,-99.99,,,0.00,,2013-01-21 11:00:00,
2013-01-21 03:53:00,28.0,-99.9,-100.00,ENE,58,2.0,6.0,-999,-99.99,,,0.00,,2013-01-21 11:53:00,
2013-01-21 04:00:00,27.0,-99.9,-100.00,ENE,66,2.0,7.0,-999,-99.99,,,0.00,,2013-01-21 12:00:00,
2013-01-21 04:53:00,27.0,-99.9,-100.00,ENE,66,2.0,7.0,-999,-99.99,,,0.00,,2013-01-21 12:53:00,
2013-01-21 05:00:00,29.0,-99.9,-100.00,ENE,70,3.0,7.0,-999,-99.99,,,0.00,,2013-01-21 13:00:00,
2013-01-21 05:54:00,29.0,-99.9,-100.00,ENE,70,3.0,7.0,-999,-99.99,,,0.00,,2013-01-21 13:54:00,
2013-01-21 06:00:00,30.0,-99.9,-100.00,ESE,108,2.0,8.0,-999,-99.99,,,0.00,,2013-01-21 14:00:00,
2013-01-21 06:54:00,30.0,-99.9,-100.00,ESE,108,2.0,8.0,-999,-99.99,,,0.00,,2013-01-21 14:54:00,
2013-01-21 07:00:00,28.0,-99.9,-100.00,East,81,2.0,7.0,-999,-99.99,,,0.00,,2013-01-21 15:00:00,
2013-01-21 07:54:00,28.0,-99.9,-100.00,East,81,2.0,7.0,-999,-99.99,,,0.00,,2013-01-21 15:54:00,
2013-01-21 08:00:00,28.0,-99.9,-100.00,ENE,77,2.0,6.0,-999,-99.99,,,0.00,,2013-01-21 16:00:00,
2013-01-21 08:53:00,28.0,-99.9,-100.00,ENE,77,2.0,6.0,-999,-99.99,,,0.00,,2013-01-21 16:53:00,
2013-01-21 09:00:00,33.0,-99.9,-100.00,ENE,65,2.0,6.0,-999,-99.99,,,0.00,,2013-01-21 17:00:00,
2013-01-21 09:53:00,33.0,-99.9,-100.00,ENE,65,2.0,6.0,-999,-99.99,,,0.00,,2013-01-21 17:53:00,
2013-01-21 10:00:00,39.0,-99.9,-100.00,East,95,2.0,6.0,-999,-99.99,,,0.00,,2013-01-21 18:00:00,
2013-01-21 10:53:00,39.0,-99.9,-100.00,East,95,2.0,6.0,-999,-99.99,,,0.00,,2013-01-21 18:53:00,
2013-01-21 11:00:00,37.0,-99.9,-100.00,North,-999,-999.0,-999.0,-999,-99.99,,,-99.99,,2013-01-21 19:00:00,
2013-01-21 11:53:00,37.0,-99.9,-100.00,North,-999,-999.0,-999.0,-999,-99.99,,,-99.99,,2013-01-21 19:53:00,
2013-01-21 12:00:00,36.0,-99.9,-100.00,SSW,200,8.0,19.0,-999,-99.99,,,0.00,,2013-01-21 20:00:00,
2013-01-21 12:53:00,36.0,-99.9,-100.00,SSW,200,8.0,19.0,-999,-99.99,,,0.00,,2013-01-21 20:53:00,
2013-01-21 13:00:00,36.0,-99.9,-100.00,SSW,208,12.0,17.0,-999,-99.99,,,0.01,,2013-01-21 21:00:00,
2013-01-21 13:54:00,36.0,-99.9,-100.00,SSW,208,12.0,17.0,-999,-99.99,,,0.01,,2013-01-21 21:54:00,
2013-01-21 14:00:00,35.0,-99.9,-100.00,SSW,210,12.0,19.0,-999,-99.99,,,0.01,,2013-01-21 22:00:00,
2013-01-21 14:53:00,35.0,-99.9,-100.00,SSW,210,12.0,19.0,-999,-99.99,,,0.01,,2013-01-21 22:53:00,
2013-01-21 15:00:00,35.0,-99.9,-100.00,SSW,200,12.0,19.0,-999,-99.99,,,-99.99,,2013-01-21 23:00:00,
2013-01-21 15:53:00,35.0,-99.9,-100.00,SSW,200,12.0,19.0,-999,-99.99,,,-99.99,,2013-01-21 23:53:00,
2013-01-21 16:00:00,35.0,-99.9,-100.00,SSW,202,8.0,14.0,-999,-99.99,,,0.00,,2013-01-22 00:00:00,
2013-01-21 16:53:00,35.0,-99.9,-100.00,SSW,202,8.0,14.0,-999,-99.99,,,0.00,,2013-01-22 00:53:00,
2013-01-21 17:00:00,28.0,-99.9,-100.00,West,278,2.0,9.0,-999,-99.99,,,0.00,,2013-01-22 01:00:00,
2013-01-21 17:53:00,28.0,-99.9,-100.00,West,278,2.0,9.0,-999,-99.99,,,0.00,,2013-01-22 01:53:00,
2013-01-21 18:00:00,28.0,-99.9,-100.00,NNE,30,2.0,6.0,-999,-99.99,,,0.00,,2013-01-22 02:00:00,
2013-01-21 18:53:00,28.0,-99.9,-100.00,NNE,30,2.0,6.0,-999,-99.99,,,0.00,,2013-01-22 02:53:00,
2013-01-21 19:00:00,28.0,-99.9,-100.00,NNE,29,2.0,5.0,-999,-99.99,,,0.00,,2013-01-22 03:00:00,
2013-01-21 19:53:00,28.0,-99.9,-100.00,NNE,29,2.0,5.0,-999,-99.99,,,0.00,,2013-01-22 03:53:00,
2013-01-21 20:00:00,28.0,-99.9,-100.00,NNW,334,2.0,6.0,-999,-99.99,,,0.00,,2013-01-22 04:00:00,
2013-01-21 20:53:00,28.0,-99.9,-100.00,NNW,334,2.0,6.0,-999,-99.99,,,0.00,,2013-01-22 04:53:00,
2013-01-21 21:00:00,29.0,-99.9,-100.00,SW,221,3.0,7.0,-999,-99.99,,,-99.99,,2013-01-22 05:00:00,
2013-01-21 21:53:00,29.0,-99.9,-100.00,SW,221,3.0,7.0,-999,-99.99,,,-99.99,,2013-01-22 05:53:00,
2013-01-21 22:00:00,28.0,-99.9,-100.00,WNW,282,2.0,9.0,-999,-99.99,,,0.00,,2013-01-22 06:00:00,
2013-01-21 22:53:00,28.0,-99.9,-100.00,WNW,282,2.0,9.0,-999,-99.99,,,0.00,,2013-01-22 06:53:00,
2013-01-21 23:00:00,28.0,-99.9,-100.00,SW,216,3.0,9.0,-999,-99.99,,,-99.99,,2013-01-22 07:00:00,
2013-01-21 23:53:00,28.0,-99.9,-100.00,SW,216,3.0,9.0,-999,-99.99,,,-99.99,,2013-01-22 07:53:00,